ORBCOMM FM 16

Satellite information

Favourite Embed

Satellite Type and Status

PAYLOADIN ORBIT

Key statistics

Satellite ORBCOMM FM 16 at a glance.

Uptime

9897

Days in orbit

Revolutions

≈ 14.4

Per day

Orbit

LEO

Low Earth Orbit

Inclination

45.0

Latest

Satellite identification and parameters

Extended collection of information and parameters for ORBCOMM FM 16.

Object identification

Identified? True

Debris? False

Object name: ORBCOMM FM 16

International designator: 1998-046E

Object number (NORAD): 25417

Object ID (CCSDS): 25417

Country: ORBITAL TELECOMMUNICATIONS SATELLITE (GLOBALSTAR) (ORB)

Current information (Y/N): Y

RCS size: MEDIUM

Orbital parameters

Period: 100.063 minutes

Inclination: 44.9924 deg

SMA: 7139.618 km

Apoapsis: 765.793 km

Periapsis: 757.173 km

RAAN: 157.2882 deg

Eccentricy: 0.00060366

Argument of periapsis: 339.9258 deg

Mean anomaly: 20.1353 deg

Mean motion: 14.39097816 rev/day

Mean motion (dot): 0.00001919 rev/day2

B* drag term: 0.00066039467 1/REarth

Two-line elements (TLE)

Creation date: Sept. 4, 2025, 10:13 a.m.

Reference frame: TEME

Reference center: EARTH

Epoch: Sept. 4, 2025, 6:13 a.m. UTC

TLE line 0: 0 ORBCOMM FM 16

TLE line 1: 1 25417U 98046E 25247.25951839 .00001919 00000-0 66039-3 0 9995

TLE line 2: 2 25417 44.9924 157.2882 0006037 339.9258 20.1353 14.39097816415643

Live tracking on map

Real-time ground track for satellite ORBCOMM FM 16.

In-orbit conjunctions

There are no conjunctions computed for ORBCOMM FM 16, at the moment. Check back to stay up to date, as we update our databases every day.

Go to all conjunctions

Associated space launch

ORBCOMM FM 16 was lifted into orbit during the mission ‘Pegasus XL HAPS | Orbcomm-B1 - B8’, on board a Pegasus XL HAPS space rocket.

The launch took place on Aug. 2, 1998, 4:24 p.m. from Wallops Flight Facility.

For more information about the launch, click the button.

Launch to space Pegasus XL HAPS | Orbcomm-B1 - B8
Pegasus XL HAPS | Orbcomm-B1 - B8

Agency: N/A

Status: Launch Successful

Launch date: Aug. 2, 1998, 4:24 p.m. UTC

Rocket: Pegasus XL HAPS

Launch pad: Wallops Flight Facility

Location: Air launch to orbit

...

Latest news about this satellite

There are no fresh news available about this satellite. Check back as we update our databases every day.


Newsletter sign-up

Weekly statistics, charts and insights to help you stay on top of the space industry.